Adrasman

Tajikistan     40˚38′58″N   69˚58′57″E
temp.,
°C
wind,
m/s
gust,
m/s
humid.,
%
clouds,
%
prec.,
mm/h
press.,
hPa
HPBL,
m
3 december, thu
thu323:00+1˚ese119098 0.2 102622
02:00+2˚ne228594 0.0 102632
05:00+1˚e229597 0.3 102758
08:00+1˚ese1198100 0.9 102742
11:00+1˚ene11100100 2.3 102752
14:00+1˚ne2299100 0.5 1025107
17:00+1˚ne1298100 1.6 1027107
20:00−1˚e1189100 0.2 102621
4 december, fri
fri423:00−1˚nne1284100 0.2 102624
02:00−2˚n2284100 0.0 102525
05:00−3˚nnw2291100 0.0 102637
08:00−2˚nnw2290100 0.0 102752
11:00−1˚nnw2286100 0.0 1027233
14:00−2˚nnw3391100 0.1 1026297
17:00−4˚nnw339199 0.2 1027126
20:00−4˚nnw2389100 0.1 1029100
5 december, sat
sat523:00−5˚n238399 0.1 102967
02:00−5˚n338393 0.0 1029164
05:00−5˚n337895 0.1 1030188
08:00−5˚nne126788 0.0 103058
11:00−3˚nnw124486 0.0 1029527
14:00−3˚nnw1276100 0.1 1027300
17:00−5˚ne1281100 0.3 102890
20:00−5˚e1274100 0.0 103030
6 december, sun
sun623:00−5˚se2283100 0.0 102952
02:00−5˚ese238097 0.0 102943
05:00−5˚se337848 0.0 102943
08:00−5˚se347727 0.0 103062
11:00−2˚se347733 0.0 1028168
14:00−1˚se227330 0.0 1026173
17:00−4˚se337337 0.0 102631
20:00−4˚se336767 0.0 102531
7 december, mon
mon723:00−4˚se226683 0.0 102522
02:00−3˚se2265100 0.0 102321
05:00−2˚ese1164100 0.0 102321
08:00−2˚nnw1270100 0.0 102424
11:00−3˚nnw2192100 0.4 1026110
14:00−2˚nnw2297100 2.1 1026156
17:00−3˚n1198100 4.3 102868
20:00−3˚n0198100 1.6 103046